Regional Weather Roundup
Issued by NWS State College, PA

Home | Current Version | Previous Version | Graphics & Text | Print | Product List | Glossary On
Versions: 1 2 3 4 5 6 7 8 9 10 11 12 13 14 15 16 17 18 19 20 21 22 23 24 25 26 27 28 29 30 31 32 33 34 35 36 37 38 39 40 41 42 43 44 45 46 47 48 49 50
000
ASUS41 KCTP 180510
RWRCTP

REGIONAL WEATHER ROUNDUP
NATIONAL WEATHER SERVICE STATE COLLEGE PA
100 AM EDT WED OCT 18 2017

Note: "fair" indicates few or no clouds below 12,000 feet with no
significant weather and/or obstructions to visibility.

* = STATION THAT DOES NOT REPORT PRECIPITATION /E.G. RAIN...SNOW...ETC/
    THUNDER OR FOG.

PAZ002>004-007>009-013>016-020>023-029>032-180600-
WESTERN PENNSYLVANIA

CITY           SKY/WX    TMP DP  RH WIND       PRES   REMARKS
ERIE           CLEAR     55  39  54 SW12      30.24R
MEADVILLE      CLOUDY    50  39  66 SW7       30.27S
FRANKLIN*      CLOUDY    49  38  65 SW5       30.29R
NEW CASTLE     FAIR      50  40  68 S5        30.29S
BEAVER COUNTY  NOT AVBL
BUTLER*        CLEAR     49  38  65 SW3       30.30S
PITTSBURGH INT CLEAR     47  40  76 S3        30.30S
PITTSBURGH     CLEAR     49  36  61 S8        30.30S
INDIANA*       CLEAR     45  41  87 CALM      30.34R
LATROBE        CLEAR     45  39  81 CALM      30.33R
WASHINGTON CO* CLEAR     42  39  89 CALM      30.34S
$$

PAZ004>006-010>012-017>019-024>028-033>037-041-042-045-046-049>053-180600-
CENTRAL PENNSYLVANIA

CITY           SKY/WX    TMP DP  RH WIND       PRES   REMARKS
BRADFORD       CLEAR     48  38  68 W5        30.27S
DUBOIS         CLEAR     47  36  65 SW7       30.29R
CLEARFIELD     CLEAR     42  40  92 SW3       30.30R
JOHNSTOWN      CLEAR     45  36  70 SW8       30.31R
ALTOONA        CLEAR     48  38  68 S3        30.30F
STATE COLLEGE  PTCLDY    44  38  80 SW6       30.29S
WILLIAMSPORT   CLEAR     43  40  89 CALM      30.29R
SELINSGROVE    CLEAR     41  40  96 CALM      30.31R
FT INDIANTOWN  CLEAR     38  38  99 CALM      30.31S
CAPITAL CITY   CLEAR     45  38  76 CALM      30.32S
HARRISBURG     CLEAR     46  41  82 CALM      30.31S
YORK           CLEAR     38  38 100 CALM      30.32S
$$

PAZ038>040-043-044-047-048-054-055-060>062-067>071-180600-
EASTERN PENNSYLVANIA

CITY           SKY/WX    TMP DP  RH WIND       PRES   REMARKS
SCRANTON       CLEAR     42  36  79 S3        30.28S
MOUNT POCONO   CLEAR     45  33  63 W12       30.26S
ALLENTOWN      CLEAR     43  37  79 CALM      30.30S
QUAKERTOWN*    CLEAR     37  37 100 CALM      30.31F
READING        CLEAR     44  40  85 CALM      30.31S
LANCASTER      CLEAR     45  40  82 CALM      30.32S
COATESVILLE    CLEAR     46  41  81 W5        30.33S
POTTSTOWN      CLEAR     41  38  89 CALM      30.32F
BLUE BELL      CLEAR     36  36 100 CALM      30.33S
DOYLESTOWN     CLEAR     44  36  73 S5        30.30S
WILLOW GROVE   NOT AVBL
NORTH PHILA    CLEAR     47  40  76 CALM      30.33S
PHILADELPHIA   CLEAR     50  43  77 W5        30.32S
$$



USA.gov is the U.S. government's official web portal to all federal, state and local government web resources and services.